Date String (YYYY-MM-DD hh:mm:ss) UTC,Instrument flags,absolute air pressure of the measurement (hPa),sample flow rate (lpm),inlet stack bypass flow (lpm),air temperature of the measurement (°C),ambient temperature measured by the external sensor (°C),aerosol sample conditioner tube jacket temperature (°C),OPC LED temperature (°C),internal box temperature (°C),relative humidity of the measurement (%),span deviation,mass concentration of particles derived from Lorenz-Mie calculation of OPC scattering (μg/m³),mass concentration of particles derived from Lorenz-Mie calculation of OPC scattering (μg/m³),mass concentration of particles derived from Lorenz-Mie calculation of OPC scattering (μg/m³)
DateTimeUTC,F1_M11,P_M11,Q1_M11,Q2_M11,T1_M11,T2_M11,T3_M11,T4_M11,T5_M11,U1_M11,ZSPAN_M11,X0_M11,X2_M11,X1_M11
2023-08-01 04:00:00,SystemResetWarning,0837.5,4.99,000.00,032.1,027.1,000.0,040.1,031.7,34.6,0000.0,0009.86,0004.73,0003.89
2023-08-01 04:01:00,SystemResetWarning,0837.5,5.00,000.00,032.1,027.4,000.0,040.0,031.7,34.4,0000.0,0009.83,0004.72,0003.90
2023-08-01 04:02:00,SystemResetWarning,0837.6,5.02,000.00,032.2,027.6,000.0,040.0,031.8,33.8,0000.0,0010.19,0004.75,0003.91
2023-08-01 04:03:00,SystemResetWarning,0837.6,5.00,000.00,032.2,027.8,000.0,040.0,031.7,33.3,0000.0,0010.34,0004.74,0003.91
2023-08-01 04:04:00,SystemResetWarning,0837.6,5.00,000.00,032.1,028.0,000.0,040.0,031.8,32.9,0000.0,0010.22,0004.76,0003.91
2023-08-01 04:05:00,SystemResetWarning,0837.6,4.99,000.00,032.1,028.1,000.0,040.0,031.8,33.3,0000.0,0009.93,0004.76,0003.90
2023-08-01 04:06:00,SystemResetWarning,0837.6,4.99,000.00,032.1,028.2,000.0,040.0,031.9,34.4,0000.0,0009.94,0004.74,0003.90
2023-08-01 04:07:00,SystemResetWarning,0837.5,5.01,000.00,032.1,028.3,000.0,040.1,031.9,35.1,0000.0,0010.05,0004.74,0003.90
2023-08-01 04:08:00,SystemResetWarning,0837.5,5.01,000.00,032.2,027.2,000.0,039.9,031.9,34.7,0000.0,0010.02,0004.74,0003.89
2023-08-01 04:09:00,SystemResetWarning,0837.5,4.98,000.00,032.3,026.0,000.0,039.8,031.7,34.1,0000.0,0009.41,0004.68,0003.89
2023-08-01 04:10:00,SystemResetWarning,0837.4,5.03,000.00,032.2,025.6,000.0,039.8,031.4,33.3,0000.0,0008.80,0004.63,0003.89
2023-08-01 04:11:00,SystemResetWarning,0837.5,4.99,000.00,032.0,025.8,000.0,039.8,031.3,33.5,0000.0,0008.69,0004.59,0003.89
2023-08-01 04:12:00,SystemResetWarning,0837.5,5.00,000.00,031.9,026.2,000.0,039.8,031.3,33.7,0000.0,0008.67,0004.57,0003.88
2023-08-01 04:13:00,SystemResetWarning,0837.5,5.00,000.00,031.8,026.6,000.0,039.8,031.4,33.8,0000.0,0008.19,0004.51,0003.86
2023-08-01 04:14:00,SystemResetWarning,0837.5,5.00,000.00,031.8,026.9,000.0,039.8,031.4,33.6,0000.0,0007.99,0004.50,0003.85
2023-08-01 04:15:00,SystemResetWarning,0837.5,4.99,000.00,031.7,027.2,000.0,039.8,031.5,32.8,0000.0,0007.82,0004.46,0003.84
2023-08-01 04:16:00,SystemResetWarning,0837.5,5.00,000.00,031.7,027.5,000.0,039.8,031.5,33.0,0000.0,0007.81,0004.47,0003.84
2023-08-01 04:17:00,SystemResetWarning,0837.5,5.00,000.00,031.7,027.7,000.0,039.8,031.6,33.6,0000.0,0007.70,0004.45,0003.83
2023-08-01 04:18:00,SystemResetWarning,0837.5,5.00,000.00,031.7,027.9,000.0,039.8,031.7,34.9,0000.0,0007.53,0004.45,0003.82
2023-08-01 04:19:00,SystemResetWarning,0837.5,5.02,000.00,031.7,028.0,000.0,039.8,031.7,35.3,0000.0,0007.42,0004.41,0003.81
2023-08-01 04:20:00,SystemResetWarning,0837.6,4.99,000.00,031.9,028.2,000.0,039.8,031.9,34.6,0000.0,0007.35,0004.37,0003.79
2023-08-01 04:21:00,SystemResetWarning,0837.6,4.99,000.00,032.0,028.3,000.0,039.8,031.9,34.7,0000.0,0007.32,0004.36,0003.77
2023-08-01 04:22:00,SystemResetWarning,0837.5,5.01,000.00,032.1,028.4,000.0,039.8,031.9,35.1,0000.0,0007.38,0004.36,0003.76
2023-08-01 04:23:00,SystemResetWarning,0837.6,5.01,000.00,032.3,028.0,000.0,039.8,032.0,34.7,0000.0,0007.32,0004.34,0003.75
2023-08-01 04:24:00,SystemResetWarning,0837.6,4.98,000.00,032.4,026.4,000.0,039.7,031.9,34.3,0000.0,0007.33,0004.34,0003.75
2023-08-01 04:25:00,SystemResetWarning,0837.5,5.02,000.00,032.4,025.7,000.0,039.6,031.7,34.3,0000.0,0007.27,0004.33,0003.75
2023-08-01 04:26:00,SystemResetWarning,0837.4,5.00,000.00,032.3,025.8,000.0,039.7,031.4,34.3,0000.0,0007.20,0004.31,0003.74
2023-08-01 04:27:00,SystemResetWarning,0837.4,5.01,000.00,032.2,026.1,000.0,039.8,031.4,34.2,0000.0,0007.22,0004.31,0003.74
2023-08-01 04:28:00,SystemResetWarning,0837.4,5.00,000.00,032.1,026.4,000.0,039.8,031.4,34.1,0000.0,0007.22,0004.29,0003.74
2023-08-01 04:29:00,SystemResetWarning,0837.4,4.99,000.00,032.0,026.8,000.0,039.9,031.5,34.3,0000.0,0007.24,0004.28,0003.73
2023-08-01 04:30:00,SystemResetWarning,0837.4,4.99,000.00,032.0,027.1,000.0,039.9,031.5,34.6,0000.0,0007.30,0004.30,0003.74
2023-08-01 04:31:00,SystemResetWarning,0837.4,5.00,000.00,032.0,027.4,000.0,039.9,031.6,34.7,0000.0,0007.35,0004.34,0003.76
2023-08-01 04:32:00,SystemResetWarning,0837.3,5.01,000.00,031.9,027.6,000.0,039.9,031.6,35.0,0000.0,0007.26,0004.31,0003.78
2023-08-01 04:33:00,SystemResetWarning,0837.4,5.00,000.00,032.0,027.8,000.0,039.9,031.7,34.8,0000.0,0007.12,0004.29,0003.77
2023-08-01 04:34:00,SystemResetWarning,0837.4,4.98,000.00,032.0,027.9,000.0,039.9,031.7,35.0,0000.0,0007.16,0004.28,0003.77
2023-08-01 04:35:00,SystemResetWarning,0837.2,5.03,000.00,032.1,028.1,000.0,039.9,031.8,35.2,0000.0,0007.13,0004.27,0003.76
2023-08-01 04:36:00,SystemResetWarning,0837.2,4.99,000.00,032.3,028.2,000.0,039.9,032.0,34.9,0000.0,0007.08,0004.25,0003.75
2023-08-01 04:37:00,SystemResetWarning,0837.2,5.00,000.00,032.6,028.2,000.0,039.9,032.0,34.3,0000.0,0006.98,0004.23,0003.75
2023-08-01 04:38:00,SystemResetWarning,0837.3,4.99,000.00,032.7,028.3,000.0,040.0,032.1,34.4,0000.0,0006.73,0004.19,0003.75
2023-08-01 04:39:00,SystemResetWarning,0837.3,4.99,000.00,032.7,028.4,000.0,040.0,032.1,34.5,0000.0,0006.80,0004.18,0003.75
2023-08-01 04:40:00,SystemResetWarning,0837.4,5.00,000.00,032.8,028.1,000.0,040.1,032.1,34.5,0000.0,0007.77,0004.21,0003.76
2023-08-01 04:41:00,SystemResetWarning,0837.4,5.00,000.00,032.8,026.5,000.0,040.0,031.9,34.5,0000.0,0007.81,0004.24,0003.77
2023-08-01 04:42:00,SystemResetWarning,0837.4,5.00,000.00,032.7,025.7,000.0,039.9,031.6,34.4,0000.0,0007.76,0004.21,0003.76
2023-08-01 04:43:00,SystemResetWarning,0837.5,5.01,000.00,032.5,025.7,000.0,040.0,031.4,34.4,0000.0,0007.81,0004.22,0003.74
2023-08-01 04:44:00,SystemResetWarning,0837.5,4.99,000.00,032.4,026.0,000.0,040.0,031.4,35.4,0000.0,0007.89,0004.24,0003.76
2023-08-01 04:45:00,SystemResetWarning,0837.6,5.04,000.00,032.4,026.4,000.0,040.1,031.5,34.8,0000.0,0007.92,0004.26,0003.76
2023-08-01 04:46:00,SystemResetWarning,0837.6,4.96,000.00,032.5,026.8,000.0,040.1,031.7,33.7,0000.0,0007.98,0004.29,0003.78
2023-08-01 04:47:00,SystemResetWarning,0837.7,5.01,000.00,032.6,027.1,000.0,040.1,031.7,33.8,0000.0,0008.02,0004.31,0003.80
2023-08-01 04:48:00,SystemResetWarning,0837.7,5.01,000.00,032.6,027.3,000.0,040.1,031.8,34.1,0000.0,0008.09,0004.34,0003.81
2023-08-01 04:49:00,SystemResetWarning,0837.7,5.00,000.00,032.5,027.6,000.0,040.2,031.8,33.8,0000.0,0008.07,0004.33,0003.80
2023-08-01 04:50:00,SystemResetWarning,0837.8,4.99,000.00,032.5,027.7,000.0,040.2,031.8,33.7,0000.0,0008.03,0004.31,0003.79
2023-08-01 04:51:00,SystemResetWarning,0837.8,5.00,000.00,032.5,027.9,000.0,040.2,031.8,33.5,0000.0,0007.18,0004.29,0003.78
2023-08-01 04:52:00,SystemResetWarning,0837.8,5.00,000.00,032.4,028.0,000.0,040.2,031.8,33.6,0000.0,0007.05,0004.25,0003.79
2023-08-01 04:53:00,SystemResetWarning,0837.8,5.00,000.00,032.4,028.1,000.0,040.2,031.9,34.0,0000.0,0006.99,0004.23,0003.77
2023-08-01 04:54:00,SystemResetWarning,0837.8,5.01,000.00,032.4,028.2,000.0,040.2,031.9,34.4,0000.0,0006.97,0004.23,0003.77
2023-08-01 04:55:00,SystemResetWarning,0837.8,5.01,000.00,032.3,028.3,000.0,040.2,031.9,34.4,0000.0,0006.86,0004.21,0003.76
2023-08-01 04:56:00,SystemResetWarning,0837.8,4.99,000.00,032.3,028.3,000.0,040.2,031.9,34.7,0000.0,0006.76,0004.20,0003.73
2023-08-01 04:57:00,SystemResetWarning,0837.8,4.99,000.00,032.2,028.4,000.0,040.2,032.0,34.9,0000.0,0006.94,0004.23,0003.73
2023-08-01 04:58:00,SystemResetWarning,0837.8,4.99,000.00,032.2,028.4,000.0,040.2,032.0,34.9,0000.0,0006.91,0004.21,0003.70
2023-08-01 04:59:00,SystemResetWarning,0837.8,4.99,000.00,032.2,028.3,000.0,040.2,032.0,35.1,0000.0,0007.05,0004.24,0003.70
